User: anonymous   Login
Location: Unspecified
(0.0000°N, 0.0000°E)
Time: 12:07:19
(UTC+00:00)
Language:

SUCHAI - Orbit

View from above orbital plane
View from above orbital plane
View from above satellite
View from above satellite

Ground track
Ground track

The orbit data is extracted from the following two-line orbital elements,

1 42788U 17036Z   18347.73417085  .00001155  00000-0  52907-4 0  9993
2 42788  97.3793  44.5644 0012409 159.4132 200.7607 15.22408773 81906
Epoch (UTC): 13 December 2018 17:37:12
Eccentricity: 0.0012409
inclination: 97.3793°
perigee height: 490 km
apogee height: 507 km
right ascension of ascending node: 44.5644°
argument of perigee: 159.4132°
revolutions per day: 15.22408773
mean anomaly at epoch: 200.7607°
orbit number at epoch: 8190

The dashed part of the orbit path shows where the satellite is in the earth's shadow,  

DLR